Regional Weather Roundup
Issued by NWS

Home | Current Version | Previous Version | Graphics & Text | Print | Product List | Glossary On
Versions: 1 2 3 4 5 6 7 8 9 10 11 12 13 14 15 16 17 18 19 20 21 22 23 24 25 26 27 28 29 30 31 32 33 34 35 36 37 38 39 40 41 42 43 44 45 46 47 48 49 50
000
ASUS43 KDTX 271001
RWRMI
MICHIGAN HOURLY REGIONAL WEATHER ROUNDUP
NATIONAL WEATHER SERVICE DETROIT/PONTIAC MI
600 AM EDT SAT AUG 27 2016

NOTE: "FAIR" INDICATES FEW OR NO CLOUDS BELOW 12,000 FEET WITH NO
SIGNIFICANT WEATHER AND/OR OBSTRUCTION TO VISIBILITY.

MIZ047>049-052>055-059>063-066>070-074>076-081>083-271100-
SOUTHEAST LOWER MICHIGAN

CITY           SKY/WX    TMP DP  RH WIND       PRES   REMARKS
ADRIAN         PTCLDY    68  66  93 E5        30.14S
ALMA           CLOUDY    62  61  97 W3        30.15S
ANN ARBOR      CLOUDY    69  64  84 CALM      30.14S
BAD AXE        MOCLDY    59  59 100 CALM      30.17S FOG
CARO           CLOUDY    60  60  99 CALM      30.15F
DETROIT CITY   CLOUDY    72  72 100 E5        30.14F
DETROIT        LGT RAIN  71  66  84 E3        30.14F
FLINT          CLOUDY    67  62  84 CALM      30.15F
GROSSE ILE     CLOUDY    72  70  93 CALM      30.13S
HILLSDALE      CLOUDY    68  62  82 E3        30.13S
HOWELL         CLOUDY    65  64  94 CALM      30.15S

CITY           SKY/WX    TMP DP  RH WIND       PRES   REMARKS
JACKSON        PTCLDY    67  65  93 NE5       30.14S
LAMBERTVILLE   MOCLDY    69  65  87 CALM      30.14S
LANSING        CLOUDY    65  60  84 E3        30.14F
LAPEER         FAIR      61  60  97 CALM      30.17S
MASON          CLOUDY    65  62  90 CALM      30.14F
MONROE         PTCLDY    68  67  97 CALM      30.13S
MT. CLEMENS    CLOUDY    70  69  96 E6        30.13F
PONTIAC        CLOUDY    68  63  84 NE5       30.15F
PORT HURON     CLOUDY    61  61 100 CALM      30.17S FOG
TRI CITIES     CLOUDY    63  61  93 CALM      30.15F
MIDLAND        CLOUDY    59  59  99 CALM      30.14S
TROY           CLOUDY    72  62  70 NE3       30.16F
SAGINAW HB     MOCLDY    61  59  94 CALM      30.14F
$$
MIZ043>046-050>051-056>058-064>065-071>073-077>080-271100-
SOUTHWEST LOWER MICHIGAN

CITY           SKY/WX    TMP DP  RH WIND       PRES   REMARKS
BATTLE CREEK   CLOUDY    66  61  84 E6        30.13S
BENTON HARBOR  CLOUDY    68  62  81 E6        30.07F
BIG RAPIDS     LGT RAIN  60  59  95 CALM      30.15R
COLDWATER      CLOUDY    67  65  94 E5        30.12S
FREMONT        CLOUDY    62  58  86 E8        30.12F
HOLLAND        LGT RAIN  65  60  84 E5        30.11F
GRAND RAPIDS   LGT RAIN  64  59  83 E8        30.12F
IONIA          LGT RAIN  62  58  89 NE6       30.13S
KALAMAZOO      CLOUDY    68  60  75 E3        30.12S
LUDINGTON      LGT RAIN  60  58  95 NE5       30.13S
MARSHALL       CLOUDY    66  63  88 CALM      30.12F
MOUNT PLEASANT CLOUDY    62  60  94 E3        30.14F
MUSKEGON       CLOUDY    64  59  83 E8        30.11F
SOUTH HAVEN    CLOUDY    67  63  86 E6        30.08F
$$
MIZ016>042-271100-
NORTHERN LOWER MICHIGAN

CITY           SKY/WX    TMP DP  RH WIND       PRES   REMARKS
ALPENA         PTCLDY    60  57  89 CALM      30.17F
BEAVER ISLAND  LGT RAIN  64  62  96 E3        30.17R
BELLAIRE       MOCLDY    58  57  96 CALM      30.16R
CADILLAC       CLOUDY    60  56  87 E6        30.15S
CHARLEVOIX     CLOUDY    61  59  94 CALM      30.19R
FRANKFORT      CLOUDY    63  57  79 CALM      30.14S
GAYLORD        CLOUDY    62  56  80 CALM      30.18S
GRAYLING       PTCLDY    56  55  95 CALM      30.18S
HARBOR SPRINGS MOCLDY    60  58  93 E5        30.17R
HOUGHTON LAKE  CLOUDY    58  56  93 E6        30.18S
MANISTEE       CLOUDY    59  57  93 CALM      30.15R
OSCODA         CLOUDY    67  63  88 E5        30.16S
PELLSTON       MOCLDY    56  54  93 CALM      30.18S
ROGERS CITY    PTCLDY    59  57  92 CALM      30.18S
TRAVERSE CITY  CLOUDY    62  58  86 CALM      30.13F
$$
MIZ007>008-015-271100-
EASTERN UPPER MICHIGAN

CITY           SKY/WX    TMP DP  RH WIND       PRES   REMARKS
KINROSS        CLOUDY    57  53  86 CALM      30.18S
MACKINAC ISLAN CLOUDY    60  55  81 E5        30.16F
NEWBERRY       CLOUDY    57  56  95 CALM      30.16F
S. S. MARIE    MOCLDY    57  54  89 CALM      30.18R
$$
MIZ004>006-011>014-085-271100-
CENTRAL UPPER MICHIGAN

CITY           SKY/WX    TMP DP  RH WIND       PRES   REMARKS
MANISTIQUE     CLOUDY    59  57  92 CALM      30.15S
ESCANABA       LGT RAIN  62  61  96 CALM      30.15R
MENOMINEE      RAIN     N/A N/A N/A CALM      30.17
SAWYER-GWINN   CLOUDY    51  50  96 CALM      30.17S
$$
MIZ001>003-009>011-084-271100-
WESTERN UPPER MICHIGAN

CITY           SKY/WX    TMP DP  RH WIND       PRES   REMARKS
IRON MOUNTAIN  LGT RAIN  57  54  89 CALM      30.15R
HOUGHTON       CLOUDY    51  49  92 CALM      30.15S
IRONWOOD       PTCLDY    52  51  97 E3        30.14F
$$

ABBREVIATIONS USED IN REMARKS
   TC - TEMPERATURE IN CELSIUS
  WCI - WIND CHILL INDEX
   HX - HEAT INDEX
  VSB - VISIBILITY




USA.gov is the U.S. government's official web portal to all federal, state and local government web resources and services.